Wind_Speed
36 37 36 35 35 35 36 35 35 35 36 37 36 35 34 35 35 35 35 35 35 36 36 37 37 37 38 39 39 39 39 39 39 39 40 40 40 40 41 42 43 44 44 45
38 36 35 36 36 36 36 36 35 36 37 39 39 38 36 36 36 36 36 36 36 37 38 38 38 38 38 38 39 39 39 40 40 41 40 41 41 41 41 42 43 44 45 46
37 35 35 37 37 37 37 37 36 37 39 40 41 40 38 37 37 37 37 37 37 37 38 38 38 37 38 38 39 39 40 40 40 41 41 41 42 42 42 43 44 44 45 47
37 36 37 37 38 38 38 38 38 39 41 41 42 43 39 38 38 37 37 37 37 37 38 38 38 38 38 38 39 40 40 40 40 41 42 42 43 43 43 43 44 45 46 48
37 37 37 37 38 38 38 38 40 41 42 43 42 44 39 38 38 37 37 36 36 36 37 37 38 38 38 39 40 40 40 41 41 42 42 43 43 44 44 43 44 45 46 47
37 38 38 37 38 38 37 38 40 41 42 44 41 43 41 37 36 36 37 37 37 37 38 37 38 39 39 39 39 39 40 41 42 42 42 43 43 43 44 44 45 46 47 48
38 39 39 38 38 38 38 38 39 41 42 43 40 43 42 38 37 36 37 37 37 38 38 38 38 38 38 38 39 39 40 41 42 42 42 43 44 44 45 45 46 47 47 47
38 39 39 39 38 38 37 37 39 40 41 41 41 43 41 39 38 37 37 37 37 37 37 38 38 38 37 38 39 40 41 41 42 43 43 44 45 46 46 46 47 47 48 48
38 39 39 38 37 37 37 38 38 40 42 42 42 42 40 37 37 36 37 37 37 37 37 38 38 38 38 39 40 41 41 41 42 43 43 44 46 47 47 47 48 49 49 51
38 38 38 38 39 38 38 37 38 40 41 42 43 42 39 36 36 36 36 36 36 37 37 38 38 39 39 40 41 41 41 42 43 44 44 45 46 47 47 48 49 50 50 51
40 40 39 39 39 38 37 38 39 40 42 42 43 41 38 37 36 36 36 36 36 36 38 38 39 40 40 41 41 41 42 42 43 44 46 46 46 46 48 49 49 50 50 50
39 40 41 40 39 39 39 39 39 40 41 42 42 42 37 36 36 37 37 36 36 37 37 38 39 40 40 40 41 42 42 43 44 45 46 46 47 47 48 49 49 49 50 50
40 41 42 41 41 41 41 40 40 40 42 42 42 41 37 36 36 36 36 37 37 37 37 38 39 39 39 40 41 42 43 43 44 46 47 47 47 48 48 49 49 49 50 50
40 42 42 41 40 40 40 40 40 41 42 41 41 39 36 35 35 36 36 37 37 37 38 38 39 39 40 40 41 43 43 44 44 45 46 47 47 48 49 50 51 51 50 49
39 40 40 40 40 41 40 39 40 41 41 41 39 39 37 36 37 37 38 38 38 38 38 39 40 40 41 42 42 43 43 43 44 45 46 47 48 48 49 49 50 49 48 48
37 39 39 40 40 41 42 41 40 41 41 41 41 39 37 38 39 39 39 40 40 40 40 40 41 42 42 42 42 42 43 44 44 45 45 46 47 48 48 48 47 47 47 47
38 39 39 39 39 41 43 39 39 40 40 41 41 39 39 39 39 39 39 40 40 40 41 41 41 41 42 42 42 43 43 43 44 44 45 45 46 46 46 46 46 46 46 46
40 39 39 39 39 42 39 38 39 39 39 39 39 38 38 38 38 39 39 40 40 40 41 42 42 42 42 42 42 42 42 42 43 43 44 44 45 45 44 44 44 45 45 45
39 39 39 40 41 41 39 37 37 38 39 38 37 37 37 37 38 38 38 38 39 40 40 40 41 41 41 40 40 41 41 42 43 43 43 43 43 43 43 43 43 44 45 45
38 38 39 39 41 40 37 36 37 38 39 37 36 35 36 37 37 36 37 37 38 39 39 40 40 40 40 40 41 41 41 42 42 41 42 42 42 42 43 43 43 44 45 45
36 37 37 37 38 38 35 35 35 36 36 34 34 35 35 36 36 36 36 36 36 37 38 38 39 39 40 40 41 40 41 41 40 40 41 42 42 42 43 43 44 44 44 44
34 35 36 36 37 36 35 35 35 35 34 34 34 35 35 35 35 36 36 35 36 36 37 37 38 39 39 39 39 39 40 40 39 40 41 41 41 42 42 42 43 43 43 43
34 34 34 35 36 36 35 36 36 37 36 35 35 35 35 35 35 36 35 35 35 35 36 37 38 38 38 38 38 39 39 39 39 40 40 41 41 41 41 41 42 43 43 43
35 35 35 34 34 35 35 36 36 36 36 36 36 36 36 36 36 36 35 35 35 35 36 36 36 36 36 37 37 38 38 39 39 39 39 40 40 40 40 41 42 42 42 42
32 34 35 35 34 35 36 36 36 36 36 36 36 36 36 35 35 35 35 35 35 35 35 35 36 36 37 37 37 38 38 38 39 39 39 39 39 40 40 41 41 41 42 42
29 31 33 33 33 34 34 35 36 36 35 35 35 35 35 35 35 35 36 36 36 36 36 36 37 37 37 37 37 38 38 38 39 39 39 39 39 40 40 40 40 41 41 40
Wind_Direction
242 242 242 244 247 247 247 249 250 251 252 253 253 254 255 258 259 260 261 263 264 265 266 267 268 269 268 268 269 269 270 271 271 273 274 274 273 274 274 272 270 270 270 268
242 241 242 244 246 247 248 249 251 252 253 254 255 255 256 258 260 261 263 264 265 267 267 268 268 269 270 269 269 269 270 271 272 273 275 275 274 274 275 273 271 271 270 269
241 242 243 244 246 248 250 251 252 254 254 256 257 256 256 257 260 262 264 265 266 268 268 268 268 269 271 271 270 269 270 272 273 274 275 276 276 276 276 274 273 272 271 269
242 242 243 244 246 249 251 252 253 255 256 257 259 260 257 258 260 262 264 266 267 268 268 269 269 269 270 271 270 270 271 272 273 274 275 275 276 277 277 275 274 274 273 271
243 242 244 245 247 250 252 253 254 255 257 258 258 261 260 261 262 263 265 266 267 267 268 269 268 268 270 271 270 269 271 271 272 273 274 275 276 277 278 276 275 275 275 273
244 243 244 245 248 250 251 252 254 255 257 258 259 262 262 262 265 265 265 266 267 267 268 269 268 269 270 271 271 271 270 271 272 273 274 275 276 277 277 276 276 276 276 276
244 244 245 246 248 249 251 252 254 256 258 261 261 262 263 265 266 266 266 267 268 268 268 269 269 270 271 271 272 271 270 271 273 274 275 275 276 278 278 277 277 277 277 277
246 245 246 247 249 250 251 252 254 256 259 262 261 262 265 266 266 267 267 267 267 268 268 269 269 270 272 272 272 271 272 272 274 275 276 277 277 278 279 278 278 279 279 279
247 248 246 247 248 249 250 251 253 255 259 261 262 264 266 266 266 266 267 268 268 269 269 269 269 270 272 273 273 274 274 274 274 276 277 278 279 279 279 279 279 280 280 279
247 248 246 246 248 249 250 252 253 254 258 262 263 264 267 267 268 268 268 269 269 269 269 269 270 272 273 274 275 276 275 276 277 277 278 280 280 280 280 280 280 281 281 281
248 249 247 246 247 249 249 250 252 255 258 261 265 267 268 269 270 269 269 270 271 270 269 270 272 273 274 275 276 277 277 278 279 279 280 281 281 282 281 281 281 281 281 281
247 248 248 247 248 249 250 250 251 253 256 260 264 267 268 269 269 269 269 270 270 270 271 271 272 274 275 276 276 277 278 279 280 280 280 281 281 281 281 281 281 281 281 281
246 246 248 248 247 248 249 250 252 253 256 259 262 266 267 268 270 270 269 270 270 270 271 272 274 274 276 277 277 278 279 280 280 280 281 281 281 282 282 282 282 282 281 281
245 247 248 250 251 251 250 250 251 253 256 259 261 264 265 266 267 268 269 269 271 271 271 272 274 276 276 277 278 278 279 279 280 281 281 281 282 283 283 283 283 282 282 281
245 247 247 248 249 250 250 250 251 254 258 260 262 262 263 264 265 266 268 269 270 272 273 274 275 276 277 277 278 278 279 280 281 282 282 282 283 283 284 285 284 283 281 281
244 247 247 247 248 249 250 251 253 255 257 259 260 260 261 263 264 265 266 268 270 271 272 274 275 276 276 277 278 279 280 281 282 282 282 283 283 284 285 285 284 283 282 281
243 246 248 249 248 248 249 251 253 256 258 259 259 260 260 263 265 266 266 268 269 271 272 274 275 276 277 277 279 280 281 281 282 282 282 283 284 285 285 285 284 283 283 282
243 245 247 249 249 250 252 251 254 256 257 259 261 260 261 262 263 264 266 267 268 269 271 274 276 277 277 278 279 280 280 281 281 282 283 284 285 285 284 285 284 284 283 283
243 245 248 249 251 253 253 253 255 256 257 258 260 261 261 262 263 264 267 268 269 270 272 274 275 277 278 278 279 279 279 280 281 282 283 284 285 285 285 286 286 285 285 285
245 245 248 250 252 255 255 254 255 257 258 258 259 260 262 263 264 266 267 269 270 271 272 273 274 276 277 277 279 280 280 280 281 282 283 284 285 285 286 287 287 288 287 287
245 245 247 249 252 253 253 254 256 257 258 257 258 260 262 263 265 267 268 269 270 271 272 273 274 275 276 277 279 279 280 281 282 283 284 286 286 287 288 288 288 288 288 289
245 244 246 247 249 251 253 255 255 257 258 258 258 260 262 263 264 267 268 270 271 271 272 273 274 276 277 278 279 280 281 282 282 283 286 287 288 288 288 289 290 289 289 290
243 244 246 247 249 251 253 254 255 256 258 258 259 259 262 264 264 267 268 270 271 271 273 274 275 277 278 279 280 281 281 282 283 284 286 288 289 289 289 290 291 291 291 291
243 244 246 248 249 251 252 254 255 257 258 259 260 261 263 264 266 267 268 270 271 272 274 275 276 277 278 279 280 281 281 283 284 286 287 289 290 290 291 292 292 292 291 291
244 245 247 248 250 251 251 253 255 257 258 259 260 261 262 264 265 266 268 270 271 273 275 276 278 280 280 280 280 281 282 283 285 287 288 290 290 291 291 292 292 293 293 292
244 246 248 249 249 250 250 251 254 256 257 258 258 259 262 263 264 266 268 270 272 274 276 276 277 279 280 280 280 281 282 284 286 287 289 289 290 291 292 293 293 294 295 295
Height
5711 5715 5718 5722 5724 5727 5729 5731 5734 5736 5737 5738 5740 5742 5744 5745 5746 5747 5748 5748 5749 5749 5749 5749 5749 5748 5748 5748 5748 5748 5748 5748 5747 5747 5746 5746 5745 5744 5743 5742 5741 5741 5741 5741
5704 5707 5712 5713 5715 5717 5720 5722 5725 5727 5728 5729 5731 5733 5736 5736 5737 5738 5739 5740 5740 5740 5739 5739 5739 5738 5738 5737 5737 5737 5737 5737 5737 5737 5736 5735 5734 5733 5732 5730 5729 5729 5729 5729
5696 5701 5702 5704 5707 5709 5711 5714 5716 5718 5719 5719 5721 5724 5727 5728 5728 5729 5730 5730 5730 5730 5730 5729 5729 5728 5727 5727 5726 5726 5726 5727 5726 5726 5725 5724 5722 5721 5720 5719 5718 5718 5717 5717
5687 5691 5693 5696 5699 5701 5703 5706 5707 5708 5708 5710 5712 5711 5718 5719 5719 5719 5720 5720 5720 5720 5719 5719 5718 5718 5717 5717 5716 5716 5716 5716 5716 5715 5714 5713 5712 5710 5709 5708 5707 5706 5705 5705
5679 5682 5684 5687 5691 5692 5694 5696 5697 5698 5698 5700 5701 5701 5707 5708 5709 5710 5710 5710 5710 5710 5709 5709 5708 5708 5707 5707 5706 5706 5706 5706 5705 5704 5703 5702 5701 5699 5698 5696 5696 5695 5694 5693
5670 5672 5675 5678 5681 5682 5684 5686 5687 5687 5688 5689 5692 5691 5694 5698 5699 5700 5700 5700 5699 5699 5699 5699 5698 5698 5697 5697 5696 5696 5695 5695 5695 5694 5693 5692 5690 5689 5687 5685 5685 5684 5682 5681
5660 5663 5665 5668 5670 5673 5674 5676 5677 5676 5677 5679 5682 5681 5684 5688 5689 5689 5689 5689 5688 5688 5688 5688 5688 5688 5687 5686 5686 5685 5685 5684 5684 5683 5682 5681 5679 5678 5676 5675 5673 5672 5670 5669
5650 5653 5656 5658 5661 5663 5665 5667 5668 5668 5668 5670 5671 5671 5676 5678 5678 5678 5678 5678 5678 5678 5678 5678 5678 5678 5677 5676 5675 5674 5674 5674 5673 5672 5671 5669 5668 5666 5665 5663 5661 5660 5658 5657
5640 5643 5646 5648 5651 5653 5655 5656 5658 5658 5658 5658 5660 5662 5666 5668 5668 5668 5668 5668 5668 5668 5668 5668 5668 5668 5667 5666 5665 5664 5664 5663 5662 5661 5659 5658 5656 5654 5653 5651 5649 5647 5645 5643
5629 5633 5636 5638 5640 5642 5645 5647 5648 5648 5648 5648 5650 5653 5657 5658 5658 5658 5658 5658 5658 5658 5658 5658 5658 5658 5657 5655 5654 5654 5653 5652 5651 5650 5648 5646 5644 5643 5641 5639 5637 5635 5632 5630
5619 5622 5626 5628 5630 5633 5635 5637 5638 5638 5639 5639 5640 5646 5647 5648 5648 5648 5648 5648 5648 5648 5648 5648 5648 5647 5646 5644 5643 5643 5642 5641 5640 5638 5636 5634 5633 5631 5629 5626 5624 5621 5619 5616
5608 5611 5614 5618 5621 5622 5624 5627 5628 5630 5630 5630 5631 5637 5638 5638 5638 5638 5638 5638 5637 5637 5637 5637 5637 5636 5635 5634 5633 5632 5631 5630 5628 5626 5624 5622 5620 5618 5616 5614 5611 5608 5605 5603
5597 5599 5603 5606 5611 5612 5613 5616 5618 5619 5620 5620 5621 5627 5628 5628 5628 5628 5628 5628 5628 5628 5628 5627 5626 5625 5625 5624 5623 5621 5620 5618 5616 5614 5612 5610 5608 5605 5603 5600 5597 5595 5592 5589
5585 5588 5593 5597 5599 5601 5603 5606 5608 5609 5609 5610 5613 5616 5619 5618 5618 5618 5618 5618 5618 5618 5618 5617 5616 5615 5614 5613 5612 5610 5609 5607 5604 5602 5600 5597 5595 5592 5590 5587 5584 5581 5578 5576
5574 5578 5581 5585 5588 5590 5592 5595 5598 5598 5600 5601 5604 5605 5609 5608 5608 5608 5608 5608 5608 5608 5607 5606 5606 5605 5603 5602 5601 5599 5597 5595 5593 5590 5588 5586 5582 5579 5576 5573 5570 5567 5564 5562
5564 5567 5570 5574 5577 5578 5580 5585 5587 5588 5590 5591 5592 5595 5598 5597 5597 5598 5598 5598 5597 5597 5597 5596 5595 5594 5592 5591 5589 5588 5586 5584 5581 5579 5576 5573 5570 5567 5564 5560 5557 5554 5552 5549
5555 5558 5560 5563 5566 5565 5569 5576 5577 5578 5580 5581 5582 5586 5586 5586 5586 5587 5587 5587 5587 5586 5586 5585 5584 5583 5581 5579 5578 5576 5574 5572 5570 5567 5565 5562 5558 5555 5552 5548 5545 5542 5539 5536
5545 5547 5549 5552 5555 5555 5564 5566 5567 5568 5570 5571 5572 5574 5575 5575 5575 5575 5576 5576 5576 5575 5575 5574 5572 5571 5570 5568 5566 5565 5563 5560 5558 5556 5553 5550 5547 5544 5540 5536 5533 5530 5527 5524
5535 5538 5540 5542 5543 5545 5552 5555 5556 5556 5558 5561 5561 5563 5563 5564 5564 5565 5565 5564 5564 5564 5563 5562 5561 5560 5558 5557 5555 5553 5551 5549 5547 5544 5542 5538 5535 5532 5528 5525 5521 5518 5515 5512
5526 5528 5531 5532 5533 5536 5543 5545 5545 5546 5547 5551 5551 5552 5553 5553 5554 5556 5555 5554 5553 5553 5552 5551 5550 5549 5547 5546 5544 5542 5540 5538 5536 5533 5530 5527 5524 5521 5517 5514 5510 5507 5503 5500
5516 5518 5520 5522 5523 5526 5532 5533 5534 5537 5539 5540 5541 5541 5542 5543 5544 5545 5544 5543 5543 5542 5541 5540 5539 5538 5537 5535 5533 5531 5529 5527 5525 5522 5519 5516 5513 5510 5506 5503 5499 5496 5492 5489
5506 5508 5511 5513 5514 5520 5521 5523 5525 5526 5528 5529 5530 5531 5532 5533 5533 5533 5533 5532 5532 5531 5530 5530 5528 5527 5526 5524 5522 5521 5519 5516 5514 5512 5509 5506 5502 5499 5495 5492 5488 5484 5481 5478
5496 5500 5501 5504 5508 5509 5510 5512 5514 5515 5517 5519 5520 5521 5522 5522 5523 5523 5522 5522 5521 5521 5520 5519 5518 5516 5515 5513 5512 5510 5508 5506 5504 5501 5498 5495 5491 5488 5484 5481 5477 5473 5469 5466
5487 5489 5491 5494 5497 5499 5500 5502 5503 5505 5507 5508 5509 5511 5511 5512 5512 5512 5512 5512 5511 5510 5510 5508 5507 5506 5505 5503 5501 5499 5497 5495 5493 5491 5488 5484 5481 5477 5474 5470 5466 5462 5458 5454
5477 5479 5481 5483 5487 5488 5490 5492 5493 5495 5496 5498 5499 5500 5501 5501 5501 5502 5502 5501 5501 5500 5499 5498 5497 5496 5494 5492 5490 5489 5487 5485 5482 5480 5477 5473 5470 5466 5463 5459 5455 5451 5447 5442
5469 5470 5472 5474 5477 5478 5480 5482 5483 5485 5486 5488 5489 5490 5490 5491 5491 5491 5491 5491 5490 5489 5488 5487 5486 5485 5483 5482 5480 5478 5476 5474 5472 5469 5466 5463 5460 5456 5452 5449 5445 5440 5436 5432